Paauilo, HI

6:59 PM HST on February 07, 2016 (GMT -1000)
Bradshaw Army Air Field

Weather History for PHSF - October, 2011

Change the Weather History Date:

Sunday, October 23, 2011

  Actual Average Record
Temperature  
Mean Temperature 56 °F -  
Max Temperature 69 °F 69 °F 78 °F (1973)
Min Temperature 42 °F 48 °F 34 °F (1973)
Degree Days  
Heating Degree Days 10    
Growing Degree Days 6 (Base 50)    
Moisture  
Dew Point 46 °F    
Average Humidity 68    
Maximum Humidity 82    
Minimum Humidity 40    
Precipitation  
Precipitation 0.00 in - - ()
Sea Level Pressure  
Sea Level Pressure 30.21 in    
Wind  
Wind Speed 5 mph (SE)    
Max Wind Speed 12 mph    
Max Gust Speed 21 mph    
Visibility 10 miles    
Events      
Averages and records for this station are not official NWS values.
T = Trace of Precipitation, MM = Missing Value Source: NWS Daily Summary

Daily Weather History Graph

Daily Weather History Graph

Search for Another Location

Airport or City:

Trip Planner

Search our weather history database for the weather conditions in past years. The results will help you decide how hot, cold, wet, or windy it might be!

Date:

Astronomy

Oct. 23, 2011 Rise Set
Actual Time 6:19 AM HST 5:53 PM HST
Civil Twilight 5:57 AM HST 6:15 PM HST
Nautical Twilight 5:31 AM HST 6:41 PM HST
Astronomical Twilight 5:05 AM HST 7:07 PM HST
Moon 3:04 AM HST (10/23) 3:30 PM HST (10/23)
Length of Visible Light 12h 18m
Length of Day
11h 33m
Waning Crescent, 12% of the Moon is Illuminated
Oct 23
Waning Crescent
Oct 26
New
Nov 2
First Quarter
Nov 10
Full
Nov 18
Last Quarter

Hourly Weather History & Observations

Time (HST) Temp. Windchill Dew Point Humidity Pressure Visibility Wind Dir Wind Speed Gust Speed Precip Events Conditions
12:55 AM 48.2 °F - 42.8 °F 82% 30.22 in 10.0 mi ENE 3.5 mph - N/A   Clear
1:56 AM 48.2 °F - 41.0 °F 76% 30.23 in 10.0 mi NE 3.5 mph - N/A   Clear
2:55 AM 46.4 °F 45.2 °F 41.0 °F 81% 30.21 in 11.0 mi NE 3.5 mph - N/A   Clear
3:55 AM 46.4 °F - 39.2 °F 76% 30.22 in 12.0 mi East 2.3 mph - N/A   Clear
4:55 AM 42.8 °F 40.1 °F 37.4 °F 81% 30.52 in 7.0 mi ENE 4.6 mph - N/A   Clear
5:58 AM 50.0 °F - 39.2 °F 66% 30.24 in 12.0 mi NE 6.9 mph 18.4 mph N/A   Clear
6:58 AM 51.8 °F - 37.4 °F 58% 30.27 in 8.0 mi SSW 2.3 mph - N/A   Clear
7:55 AM 60.8 °F - 41.0 °F 48% 30.20 in 11.0 mi SW 1.2 mph - N/A   Partly Cloudy
8:55 AM 62.6 °F - 42.8 °F 48% 30.22 in 12.0 mi SSW 5.8 mph - N/A   Partly Cloudy
9:55 AM 68.0 °F - 42.8 °F 40% 30.20 in 12.0 mi NNE 4.6 mph - N/A   Partly Cloudy
10:55 AM 69.8 °F - 44.6 °F 40% 30.16 in 12.0 mi South 3.5 mph - N/A   Partly Cloudy
11:55 AM 69.8 °F - 51.8 °F 53% 30.14 in 9.0 mi SW 10.4 mph 20.7 mph N/A   Scattered Clouds
12:55 PM 68.0 °F - 53.6 °F 60% 30.15 in 7.0 mi West 11.5 mph 19.6 mph N/A   Scattered Clouds
1:55 PM 68.0 °F - 53.6 °F 60% 30.13 in 7.0 mi SW 9.2 mph 17.3 mph N/A   Scattered Clouds
2:55 PM 68.0 °F - 53.6 °F 60% 30.14 in 7.0 mi SW 9.2 mph 18.4 mph N/A   Scattered Clouds
3:55 PM 60.8 °F - 53.6 °F 77% 30.20 in 7.0 mi South 8.1 mph 15.0 mph N/A   Mostly Cloudy
4:55 PM 59.0 °F - 53.6 °F 82% 30.23 in 5.0 mi SW 3.5 mph - N/A   Mostly Cloudy
5:55 PM 59.0 °F - 53.6 °F 82% 30.25 in 7.0 mi SW 4.6 mph - N/A   Mostly Cloudy
6:55 PM 57.2 °F - 50.0 °F 77% 30.21 in 8.0 mi East 3.5 mph - N/A   Partly Cloudy
7:55 PM 55.4 °F - 50.0 °F 82% 30.19 in 12.0 mi West 3.5 mph - N/A   Partly Cloudy
8:55 PM 55.4 °F - 48.2 °F 77% 30.20 in 12.0 mi East 3.5 mph - N/A   Mostly Cloudy
9:55 PM 55.4 °F - 48.2 °F 77% 30.17 in 12.0 mi East 4.6 mph - N/A   Mostly Cloudy
10:55 PM 55.4 °F - 46.4 °F 72% 30.15 in 12.0 mi East 6.9 mph - N/A   Partly Cloudy
11:55 PM 50.0 °F - 44.6 °F 82% 30.18 in 12.0 mi ENE 3.5 mph - N/A   Clear